iso_date,epoch_date,Year,Hour,Min,DOY,POS_DOY,Lat,Lon,BP,Ts,Ta,has_bp,has_ts,has_ta,BuoyID,Buoy_Type,Buoy_Owner,Logistics,Hemisphere
2021-02-18T18:22:01Z,1613672522,2021,18,22,49.7653,46.922,65.5838,24.4638,1016.0,13.0,-999.0,yes,yes,no,300234011093780,SVP-B,FMI,MOSAiC,North
2021-02-18T19:00:02Z,1613674803,2021,19,0,49.7917,46.948,65.5838,24.4638,1016.2,3.4,-999.0,yes,yes,no,300234011093780,SVP-B,FMI,MOSAiC,North
2021-02-18T19:59:57Z,1613678397,2021,20,0,49.8333,46.99,65.5838,24.4638,1016.2,1.1,-999.0,yes,yes,no,300234011093780,SVP-B,FMI,MOSAiC,North
2021-02-18T21:00:00Z,1613682000,2021,21,0,49.875,49.875,65.6988,24.1824,1015.1,0.0,-999.0,yes,yes,no,300234011093780,SVP-B,FMI,MOSAiC,North
2021-02-18T22:00:02Z,1613685603,2021,22,0,49.9167,49.875,65.6988,24.1824,1014.2,-0.9,-999.0,yes,yes,no,300234011093780,SVP-B,FMI,MOSAiC,North
2021-02-18T22:59:57Z,1613689197,2021,23,0,49.9583,49.875,65.6988,24.1824,1013.4,-1.2,-999.0,yes,yes,no,300234011093780,SVP-B,FMI,MOSAiC,North
2021-02-19T00:00:00Z,1613692800,2021,0,0,50.0,50.0,65.3112,23.8326,1012.9,-1.3,-999.0,yes,yes,no,300234011093780,SVP-B,FMI,MOSAiC,North
2021-02-19T01:00:02Z,1613696403,2021,1,0,50.0417,50.0,65.3112,23.8326,1013.9,-1.3,-999.0,yes,yes,no,300234011093780,SVP-B,FMI,MOSAiC,North
2021-02-19T01:59:57Z,1613699997,2021,2,0,50.0833,50.0,65.3112,23.8326,1014.0,-1.5,-999.0,yes,yes,no,300234011093780,SVP-B,FMI,MOSAiC,North
2021-02-19T03:00:00Z,1613703600,2021,3,0,50.125,50.125,65.692,24.1862,1014.1,-1.6,-999.0,yes,yes,no,300234011093780,SVP-B,FMI,MOSAiC,North
2021-02-19T04:00:02Z,1613707203,2021,4,0,50.1667,50.125,65.692,24.1862,1013.9,-1.7,-999.0,yes,yes,no,300234011093780,SVP-B,FMI,MOSAiC,North
2021-02-19T04:59:57Z,1613710797,2021,5,0,50.2083,50.125,65.692,24.1862,1014.1,-1.8,-999.0,yes,yes,no,300234011093780,SVP-B,FMI,MOSAiC,North
2021-02-19T06:00:00Z,1613714400,2021,6,0,50.25,50.25,65.6666,24.5158,1014.6,-1.9,-999.0,yes,yes,no,300234011093780,SVP-B,FMI,MOSAiC,North
2021-02-19T07:00:02Z,1613718003,2021,7,0,50.2917,50.25,65.6666,24.5158,1014.9,-2.0,-999.0,yes,yes,no,300234011093780,SVP-B,FMI,MOSAiC,North
2021-02-19T07:59:57Z,1613721597,2021,8,0,50.3333,50.25,65.6666,24.5158,1015.3,-2.0,-999.0,yes,yes,no,300234011093780,SVP-B,FMI,MOSAiC,North
2021-02-19T09:00:00Z,1613725200,2021,9,0,50.375,50.375,65.6664,24.5158,1015.6,-2.0,-999.0,yes,yes,no,300234011093780,SVP-B,FMI,MOSAiC,North
2021-02-19T10:00:02Z,1613728803,2021,10,0,50.4167,50.375,65.6664,24.5158,1015.7,-1.9,-999.0,yes,yes,no,300234011093780,SVP-B,FMI,MOSAiC,North
2021-02-19T10:59:57Z,1613732397,2021,11,0,50.4583,50.375,65.6664,24.5158,1015.8,-1.9,-999.0,yes,yes,no,300234011093780,SVP-B,FMI,MOSAiC,North
2021-02-19T12:00:00Z,1613736000,2021,12,0,50.5,50.5,65.6664,24.5158,1015.7,-1.8,-999.0,yes,yes,no,300234011093780,SVP-B,FMI,MOSAiC,North
2021-02-19T13:00:02Z,1613739603,2021,13,0,50.5417,50.5,65.6664,24.5158,1015.8,-1.8,-999.0,yes,yes,no,300234011093780,SVP-B,FMI,MOSAiC,North
2021-02-19T13:59:57Z,1613743197,2021,14,0,50.5833,50.5,65.6664,24.5158,1015.7,-1.7,-999.0,yes,yes,no,300234011093780,SVP-B,FMI,MOSAiC,North
2021-02-19T15:00:00Z,1613746800,2021,15,0,50.625,50.625,65.5222,24.3868,1015.4,-1.6,-999.0,yes,yes,no,300234011093780,SVP-B,FMI,MOSAiC,North
2021-02-19T16:00:02Z,1613750403,2021,16,0,50.6667,50.625,65.5222,24.3868,1015.0,-1.5,-999.0,yes,yes,no,300234011093780,SVP-B,FMI,MOSAiC,North
2021-02-19T16:59:57Z,1613753997,2021,17,0,50.7083,50.625,65.5222,24.3868,1014.9,-1.4,-999.0,yes,yes,no,300234011093780,SVP-B,FMI,MOSAiC,North
2021-02-19T18:00:00Z,1613757600,2021,18,0,50.75,50.75,65.4336,24.2042,1015.0,-1.4,-999.0,yes,yes,no,300234011093780,SVP-B,FMI,MOSAiC,North
2021-02-19T19:00:02Z,1613761203,2021,19,0,50.7917,50.75,65.4336,24.2042,1015.8,-1.3,-999.0,yes,yes,no,300234011093780,SVP-B,FMI,MOSAiC,North
2021-02-19T19:59:57Z,1613764797,2021,20,0,50.8333,50.75,65.4336,24.2042,1016.0,-1.3,-999.0,yes,yes,no,300234011093780,SVP-B,FMI,MOSAiC,North
2021-02-19T21:00:00Z,1613768400,2021,21,0,50.875,50.875,65.7222,24.1692,1016.1,-1.4,-999.0,yes,yes,no,300234011093780,SVP-B,FMI,MOSAiC,North
2021-02-19T22:00:02Z,1613772003,2021,22,0,50.9167,50.875,65.7222,24.1692,1016.2,-1.3,-999.0,yes,yes,no,300234011093780,SVP-B,FMI,MOSAiC,North
2021-02-19T22:59:57Z,1613775597,2021,23,0,50.9583,50.875,65.7222,24.1692,1015.6,-1.2,-999.0,yes,yes,no,300234011093780,SVP-B,FMI,MOSAiC,North
2021-02-20T00:00:00Z,1613779200,2021,0,0,51.0,51.0,65.323,23.7718,1015.1,-1.3,-999.0,yes,yes,no,300234011093780,SVP-B,FMI,MOSAiC,North
2021-02-20T01:00:02Z,1613782803,2021,1,0,51.0417,51.0,65.323,23.7718,1014.3,-1.0,-999.0,yes,yes,no,300234011093780,SVP-B,FMI,MOSAiC,North
2021-02-20T01:59:57Z,1613786397,2021,2,0,51.0833,51.0,65.323,23.7718,1014.2,-1.0,-999.0,yes,yes,no,300234011093780,SVP-B,FMI,MOSAiC,North
2021-02-20T03:00:00Z,1613790000,2021,3,0,51.125,51.125,65.4006,24.1084,1014.9,-0.8,-999.0,yes,yes,no,300234011093780,SVP-B,FMI,MOSAiC,North
2021-02-20T04:00:02Z,1613793603,2021,4,0,51.1667,51.125,65.4006,24.1084,1015.5,-0.6,-999.0,yes,yes,no,300234011093780,SVP-B,FMI,MOSAiC,North
2021-02-20T04:59:57Z,1613797197,2021,5,0,51.2083,51.125,65.4006,24.1084,1015.7,-0.6,-999.0,yes,yes,no,300234011093780,SVP-B,FMI,MOSAiC,North
2021-02-20T06:00:00Z,1613800800,2021,6,0,51.25,51.125,65.4006,24.1084,1016.2,-0.5,-999.0,yes,yes,no,300234011093780,SVP-B,FMI,MOSAiC,North
2021-02-20T07:00:02Z,1613804403,2021,7,0,51.2917,51.125,65.4006,24.1084,1015.9,-0.5,-999.0,yes,yes,no,300234011093780,SVP-B,FMI,MOSAiC,North
2021-02-20T07:59:57Z,1613807997,2021,8,0,51.3333,51.125,65.4006,24.1084,1016.1,-0.5,-999.0,yes,yes,no,300234011093780,SVP-B,FMI,MOSAiC,North
2021-02-20T09:00:00Z,1613811600,2021,9,0,51.375,51.375,65.7508,24.1602,1016.7,-0.6,-999.0,yes,yes,no,300234011093780,SVP-B,FMI,MOSAiC,North
2021-02-20T10:00:02Z,1613815203,2021,10,0,51.4167,51.375,65.7508,24.1602,1016.8,-0.5,-999.0,yes,yes,no,300234011093780,SVP-B,FMI,MOSAiC,North
2021-02-20T10:59:57Z,1613818797,2021,11,0,51.4583,51.375,65.7508,24.1602,1016.2,-0.4,-999.0,yes,yes,no,300234011093780,SVP-B,FMI,MOSAiC,North
2021-02-20T12:00:00Z,1613822400,2021,12,0,51.5,51.5,65.7508,24.1602,1016.3,-0.4,-999.0,yes,yes,no,300234011093780,SVP-B,FMI,MOSAiC,North
2021-02-20T13:00:02Z,1613826003,2021,13,0,51.5417,51.5,65.7508,24.1602,1015.8,-0.3,-999.0,yes,yes,no,300234011093780,SVP-B,FMI,MOSAiC,North
2021-02-20T13:59:57Z,1613829597,2021,14,0,51.5833,51.5,65.7508,24.1602,1015.5,-0.3,-999.0,yes,yes,no,300234011093780,SVP-B,FMI,MOSAiC,North
2021-02-20T15:00:00Z,1613833200,2021,15,0,51.625,51.625,65.7508,24.1596,1015.7,-0.3,-999.0,yes,yes,no,300234011093780,SVP-B,FMI,MOSAiC,North
2021-02-20T16:00:02Z,1613836803,2021,16,0,51.6667,51.625,65.7508,24.1596,1015.1,-0.2,-999.0,yes,yes,no,300234011093780,SVP-B,FMI,MOSAiC,North
2021-02-20T16:59:57Z,1613840397,2021,17,0,51.7083,51.625,65.7508,24.1596,1015.1,-0.2,-999.0,yes,yes,no,300234011093780,SVP-B,FMI,MOSAiC,North
2021-02-20T18:00:00Z,1613844000,2021,18,0,51.75,51.75,65.6462,24.4984,1014.8,-0.2,-999.0,yes,yes,no,300234011093780,SVP-B,FMI,MOSAiC,North
2021-02-20T19:00:02Z,1613847603,2021,19,0,51.7917,51.75,65.6462,24.4984,1014.6,-0.3,-999.0,yes,yes,no,300234011093780,SVP-B,FMI,MOSAiC,North
2021-02-20T19:59:57Z,1613851197,2021,20,0,51.8333,51.75,65.6462,24.4984,1014.7,-0.4,-999.0,yes,yes,no,300234011093780,SVP-B,FMI,MOSAiC,North
2021-02-20T21:00:00Z,1613854800,2021,21,0,51.875,51.875,65.646,24.4984,1014.9,-0.5,-999.0,yes,yes,no,300234011093780,SVP-B,FMI,MOSAiC,North
2021-02-20T22:00:02Z,1613858403,2021,22,0,51.9167,51.875,65.646,24.4984,1015.4,-0.5,-999.0,yes,yes,no,300234011093780,SVP-B,FMI,MOSAiC,North
2021-02-20T22:59:57Z,1613861997,2021,23,0,51.9583,51.875,65.646,24.4984,1015.9,-0.6,-999.0,yes,yes,no,300234011093780,SVP-B,FMI,MOSAiC,North
2021-02-21T00:00:00Z,1613865600,2021,0,0,52.0,52.0,65.6592,24.5116,1015.8,-0.6,-999.0,yes,yes,no,300234011093780,SVP-B,FMI,MOSAiC,North
2021-02-21T01:00:02Z,1613869203,2021,1,0,52.0417,52.0,65.6592,24.5116,1015.6,-0.7,-999.0,yes,yes,no,300234011093780,SVP-B,FMI,MOSAiC,North
2021-02-21T01:59:57Z,1613872797,2021,2,0,52.0833,52.0,65.6592,24.5116,1017.1,-0.7,-999.0,yes,yes,no,300234011093780,SVP-B,FMI,MOSAiC,North
2021-02-21T03:00:00Z,1613876400,2021,3,0,52.125,52.125,65.297,23.9782,1016.1,-0.7,-999.0,yes,yes,no,300234011093780,SVP-B,FMI,MOSAiC,North
2021-02-21T04:00:02Z,1613880003,2021,4,0,52.1667,52.125,65.297,23.9782,1017.1,-3.3,-999.0,yes,yes,no,300234011093780,SVP-B,FMI,MOSAiC,North
2021-02-21T04:59:57Z,1613883597,2021,5,0,52.2083,52.125,65.297,23.9782,1017.6,-6.1,-999.0,yes,yes,no,300234011093780,SVP-B,FMI,MOSAiC,North
2021-02-21T06:00:00Z,1613887200,2021,6,0,52.25,52.25,65.1926,24.0532,1018.1,-7.3,-999.0,yes,yes,no,300234011093780,SVP-B,FMI,MOSAiC,North
2021-02-21T07:00:02Z,1613890803,2021,7,0,52.2917,52.25,65.1926,24.0532,1018.8,-7.9,-999.0,yes,yes,no,300234011093780,SVP-B,FMI,MOSAiC,North
2021-02-21T07:59:57Z,1613894397,2021,8,0,52.3333,52.25,65.1926,24.0532,1021.4,-8.5,-999.0,yes,yes,no,300234011093780,SVP-B,FMI,MOSAiC,North
2021-02-21T09:00:00Z,1613898000,2021,9,0,52.375,52.375,65.6728,24.1976,1021.0,-9.0,-999.0,yes,yes,no,300234011093780,SVP-B,FMI,MOSAiC,North
2021-02-21T10:00:02Z,1613901603,2021,10,0,52.4167,52.375,65.6728,24.1976,1021.3,-8.9,-999.0,yes,yes,no,300234011093780,SVP-B,FMI,MOSAiC,North
2021-02-21T10:59:57Z,1613905197,2021,11,0,52.4583,52.375,65.6728,24.1976,1021.5,-8.8,-999.0,yes,yes,no,300234011093780,SVP-B,FMI,MOSAiC,North
2021-02-21T12:00:00Z,1613908800,2021,12,0,52.5,52.5,65.7314,24.164,1021.3,-8.6,-999.0,yes,yes,no,300234011093780,SVP-B,FMI,MOSAiC,North
2021-02-21T13:00:02Z,1613912403,2021,13,0,52.5417,52.5,65.7314,24.164,1021.2,-8.8,-999.0,yes,yes,no,300234011093780,SVP-B,FMI,MOSAiC,North
2021-02-21T13:59:57Z,1613915997,2021,14,0,52.5833,52.5,65.7314,24.164,1020.4,-9.3,-999.0,yes,yes,no,300234011093780,SVP-B,FMI,MOSAiC,North
2021-02-21T15:00:00Z,1613919600,2021,15,0,52.625,52.625,65.6492,24.2892,1019.5,-9.4,-999.0,yes,yes,no,300234011093780,SVP-B,FMI,MOSAiC,North
2021-02-21T16:00:02Z,1613923203,2021,16,0,52.6667,52.625,65.6492,24.2892,1020.0,-9.5,-999.0,yes,yes,no,300234011093780,SVP-B,FMI,MOSAiC,North
2021-02-21T16:59:57Z,1613926797,2021,17,0,52.7083,52.625,65.6492,24.2892,1020.5,-9.3,-999.0,yes,yes,no,300234011093780,SVP-B,FMI,MOSAiC,North
2021-02-21T18:00:00Z,1613930400,2021,18,0,52.75,52.75,65.6554,24.254,1020.8,-8.8,-999.0,yes,yes,no,300234011093780,SVP-B,FMI,MOSAiC,North
2021-02-21T19:00:02Z,1613934003,2021,19,0,52.7917,52.75,65.6554,24.254,1021.2,-8.3,-999.0,yes,yes,no,300234011093780,SVP-B,FMI,MOSAiC,North
2021-02-21T19:59:57Z,1613937597,2021,20,0,52.8333,52.75,65.6554,24.254,1021.3,-7.8,-999.0,yes,yes,no,300234011093780,SVP-B,FMI,MOSAiC,North
2021-02-21T21:00:00Z,1613941200,2021,21,0,52.875,52.875,65.6142,24.4172,1022.1,-7.4,-999.0,yes,yes,no,300234011093780,SVP-B,FMI,MOSAiC,North
2021-02-21T22:00:02Z,1613944803,2021,22,0,52.9167,52.875,65.6142,24.4172,1022.9,-7.1,-999.0,yes,yes,no,300234011093780,SVP-B,FMI,MOSAiC,North
2021-02-21T22:59:57Z,1613948397,2021,23,0,52.9583,52.875,65.6142,24.4172,1023.0,-6.9,-999.0,yes,yes,no,300234011093780,SVP-B,FMI,MOSAiC,North
2021-02-22T00:00:00Z,1613952000,2021,0,0,53.0,53.0,65.5644,24.451,1023.6,-6.7,-999.0,yes,yes,no,300234011093780,SVP-B,FMI,MOSAiC,North
2021-02-22T01:00:02Z,1613955603,2021,1,0,53.0417,53.0,65.5644,24.451,1023.8,-6.6,-999.0,yes,yes,no,300234011093780,SVP-B,FMI,MOSAiC,North
2021-02-22T01:59:57Z,1613959197,2021,2,0,53.0833,53.0,65.5644,24.451,1024.0,-7.6,-999.0,yes,yes,no,300234011093780,SVP-B,FMI,MOSAiC,North
2021-02-22T03:00:00Z,1613962800,2021,3,0,53.125,53.125,65.5338,24.4064,1025.4,-7.8,-999.0,yes,yes,no,300234011093780,SVP-B,FMI,MOSAiC,North
2021-02-22T04:00:02Z,1613966403,2021,4,0,53.1667,53.125,65.5338,24.4064,1027.0,-8.6,-999.0,yes,yes,no,300234011093780,SVP-B,FMI,MOSAiC,North
2021-02-22T04:59:57Z,1613969997,2021,5,0,53.2083,53.125,65.5338,24.4064,1027.4,-8.4,-999.0,yes,yes,no,300234011093780,SVP-B,FMI,MOSAiC,North
2021-02-22T06:00:00Z,1613973600,2021,6,0,53.25,53.25,65.7458,24.1566,1028.1,-8.3,-999.0,yes,yes,no,300234011093780,SVP-B,FMI,MOSAiC,North
2021-02-22T07:00:02Z,1613977203,2021,7,0,53.2917,53.25,65.7458,24.1566,1027.9,-8.6,-999.0,yes,yes,no,300234011093780,SVP-B,FMI,MOSAiC,North
2021-02-22T07:59:57Z,1613980797,2021,8,0,53.3333,53.25,65.7458,24.1566,1028.6,-8.6,-999.0,yes,yes,no,300234011093780,SVP-B,FMI,MOSAiC,North
2021-02-22T09:00:00Z,1613984400,2021,9,0,53.375,53.375,65.3238,23.974,1028.9,-8.0,-999.0,yes,yes,no,300234011093780,SVP-B,FMI,MOSAiC,North
2021-02-22T10:00:02Z,1613988003,2021,10,0,53.4167,53.375,65.3238,23.974,1029.9,-7.2,-999.0,yes,yes,no,300234011093780,SVP-B,FMI,MOSAiC,North
2021-02-22T10:59:57Z,1613991597,2021,11,0,53.4583,53.375,65.3238,23.974,1030.9,-7.1,-999.0,yes,yes,no,300234011093780,SVP-B,FMI,MOSAiC,North
2021-02-22T12:00:00Z,1613995200,2021,12,0,53.5,53.5,65.643,24.311,1031.2,-7.4,-999.0,yes,yes,no,300234011093780,SVP-B,FMI,MOSAiC,North
2021-02-22T13:00:02Z,1613998803,2021,13,0,53.5417,53.5,65.643,24.311,1031.6,-2.7,-999.0,yes,yes,no,300234011093780,SVP-B,FMI,MOSAiC,North
2021-02-22T13:59:57Z,1614002397,2021,14,0,53.5833,53.5,65.643,24.311,1031.6,-1.8,-999.0,yes,yes,no,300234011093780,SVP-B,FMI,MOSAiC,North
2021-02-22T15:00:00Z,1614006000,2021,15,0,53.625,53.625,65.7468,24.156,1031.8,-1.8,-999.0,yes,yes,no,300234011093780,SVP-B,FMI,MOSAiC,North
2021-02-22T16:00:02Z,1614009603,2021,16,0,53.6667,53.625,65.7468,24.156,1031.5,-1.8,-999.0,yes,yes,no,300234011093780,SVP-B,FMI,MOSAiC,North
2021-02-22T16:59:57Z,1614013197,2021,17,0,53.7083,53.625,65.7468,24.156,1031.4,-2.1,-999.0,yes,yes,no,300234011093780,SVP-B,FMI,MOSAiC,North
2021-02-22T18:00:00Z,1614016800,2021,18,0,53.75,53.75,65.6522,24.5066,1031.8,-2.4,-999.0,yes,yes,no,300234011093780,SVP-B,FMI,MOSAiC,North
2021-02-22T19:00:02Z,1614020403,2021,19,0,53.7917,53.75,65.6522,24.5066,1031.5,-2.7,-999.0,yes,yes,no,300234011093780,SVP-B,FMI,MOSAiC,North
2021-02-22T19:59:57Z,1614023997,2021,20,0,53.8333,53.75,65.6522,24.5066,1030.7,-2.7,-999.0,yes,yes,no,300234011093780,SVP-B,FMI,MOSAiC,North
2021-02-22T21:00:00Z,1614027600,2021,21,0,53.875,53.875,65.4258,24.177,1030.3,-3.1,-999.0,yes,yes,no,300234011093780,SVP-B,FMI,MOSAiC,North
2021-02-22T22:00:02Z,1614031203,2021,22,0,53.9167,53.875,65.4258,24.177,1029.6,-3.5,-999.0,yes,yes,no,300234011093780,SVP-B,FMI,MOSAiC,North
2021-02-22T22:59:57Z,1614034797,2021,23,0,53.9583,53.875,65.4258,24.177,1028.9,-3.9,-999.0,yes,yes,no,300234011093780,SVP-B,FMI,MOSAiC,North
2021-02-23T00:00:00Z,1614038400,2021,0,0,54.0,54.0,65.2292,24.0002,1028.1,-3.8,-999.0,yes,yes,no,300234011093780,SVP-B,FMI,MOSAiC,North
2021-02-23T01:00:02Z,1614042003,2021,1,0,54.0417,54.0,65.2292,24.0002,1027.4,-3.5,-999.0,yes,yes,no,300234011093780,SVP-B,FMI,MOSAiC,North
2021-02-23T01:59:57Z,1614045597,2021,2,0,54.0833,54.0,65.2292,24.0002,1026.9,-3.3,-999.0,yes,yes,no,300234011093780,SVP-B,FMI,MOSAiC,North
2021-02-23T03:00:00Z,1614049200,2021,3,0,54.125,54.125,65.2322,23.9982,1025.4,-3.3,-999.0,yes,yes,no,300234011093780,SVP-B,FMI,MOSAiC,North
2021-02-23T04:00:02Z,1614052803,2021,4,0,54.1667,54.125,65.2322,23.9982,1024.4,-3.2,-999.0,yes,yes,no,300234011093780,SVP-B,FMI,MOSAiC,North
2021-02-23T04:59:57Z,1614056397,2021,5,0,54.2083,54.125,65.2322,23.9982,1023.6,-3.1,-999.0,yes,yes,no,300234011093780,SVP-B,FMI,MOSAiC,North
2021-02-23T06:00:00Z,1614060000,2021,6,0,54.25,54.25,65.242,23.9898,1023.1,-2.8,-999.0,yes,yes,no,300234011093780,SVP-B,FMI,MOSAiC,North
2021-02-23T07:00:02Z,1614063603,2021,7,0,54.2917,54.25,65.242,23.9898,1022.6,-2.7,-999.0,yes,yes,no,300234011093780,SVP-B,FMI,MOSAiC,North
2021-02-23T07:59:57Z,1614067197,2021,8,0,54.3333,54.25,65.242,23.9898,1022.3,-2.4,-999.0,yes,yes,no,300234011093780,SVP-B,FMI,MOSAiC,North
2021-02-23T09:00:00Z,1614070800,2021,9,0,54.375,54.375,65.2484,23.99,1021.9,-2.3,-999.0,yes,yes,no,300234011093780,SVP-B,FMI,MOSAiC,North
2021-02-23T10:00:02Z,1614074403,2021,10,0,54.4167,54.375,65.2484,23.99,1021.5,-2.1,-999.0,yes,yes,no,300234011093780,SVP-B,FMI,MOSAiC,North
2021-02-23T10:59:57Z,1614077997,2021,11,0,54.4583,54.375,65.2484,23.99,1021.0,-1.9,-999.0,yes,yes,no,300234011093780,SVP-B,FMI,MOSAiC,North
2021-02-23T12:00:00Z,1614081600,2021,12,0,54.5,54.5,65.2542,23.9908,1021.0,-1.5,-999.0,yes,yes,no,300234011093780,SVP-B,FMI,MOSAiC,North
2021-02-23T13:00:02Z,1614085203,2021,13,0,54.5417,54.5,65.2542,23.9908,1021.0,-1.4,-999.0,yes,yes,no,300234011093780,SVP-B,FMI,MOSAiC,North
2021-02-23T13:59:57Z,1614088797,2021,14,0,54.5833,54.5,65.2542,23.9908,1021.5,-1.3,-999.0,yes,yes,no,300234011093780,SVP-B,FMI,MOSAiC,North
2021-02-23T15:00:00Z,1614092400,2021,15,0,54.625,54.625,65.5664,24.4536,1021.5,-1.3,-999.0,yes,yes,no,300234011093780,SVP-B,FMI,MOSAiC,North
2021-02-23T16:00:02Z,1614096003,2021,16,0,54.6667,54.625,65.5664,24.4536,1021.3,-1.3,-999.0,yes,yes,no,300234011093780,SVP-B,FMI,MOSAiC,North
2021-02-23T16:59:57Z,1614099597,2021,17,0,54.7083,54.625,65.5664,24.4536,1021.3,-1.4,-999.0,yes,yes,no,300234011093780,SVP-B,FMI,MOSAiC,North
2021-02-23T18:00:00Z,1614103200,2021,18,0,54.75,54.75,65.7484,24.1554,1021.6,-1.3,-999.0,yes,yes,no,300234011093780,SVP-B,FMI,MOSAiC,North
2021-02-23T19:00:02Z,1614106803,2021,19,0,54.7917,54.75,65.7484,24.1554,1021.7,-1.3,-999.0,yes,yes,no,300234011093780,SVP-B,FMI,MOSAiC,North
2021-02-23T19:59:57Z,1614110397,2021,20,0,54.8333,54.75,65.7484,24.1554,1021.5,-1.3,-999.0,yes,yes,no,300234011093780,SVP-B,FMI,MOSAiC,North
2021-02-23T21:00:00Z,1614114000,2021,21,0,54.875,54.875,65.3642,24.0028,1021.2,-1.1,-999.0,yes,yes,no,300234011093780,SVP-B,FMI,MOSAiC,North
2021-02-23T22:00:02Z,1614117603,2021,22,0,54.9167,54.875,65.3642,24.0028,1021.3,-1.0,-999.0,yes,yes,no,300234011093780,SVP-B,FMI,MOSAiC,North
2021-02-23T22:59:57Z,1614121197,2021,23,0,54.9583,54.875,65.3642,24.0028,1021.7,-0.9,-999.0,yes,yes,no,300234011093780,SVP-B,FMI,MOSAiC,North
2021-02-24T00:00:00Z,1614124800,2021,0,0,55.0,55.0,65.646,24.4986,1021.4,-0.7,-999.0,yes,yes,no,300234011093780,SVP-B,FMI,MOSAiC,North
2021-02-24T01:00:02Z,1614128403,2021,1,0,55.0417,55.0,65.646,24.4986,1021.4,-0.6,-999.0,yes,yes,no,300234011093780,SVP-B,FMI,MOSAiC,North
2021-02-24T01:59:57Z,1614131997,2021,2,0,55.0833,55.0,65.646,24.4986,1020.9,-0.7,-999.0,yes,yes,no,300234011093780,SVP-B,FMI,MOSAiC,North
2021-02-24T03:00:00Z,1614135600,2021,3,0,55.125,55.125,65.646,24.4986,1019.5,-0.7,-999.0,yes,yes,no,300234011093780,SVP-B,FMI,MOSAiC,North
2021-02-24T04:00:02Z,1614139203,2021,4,0,55.1667,55.125,65.646,24.4986,1019.3,-0.8,-999.0,yes,yes,no,300234011093780,SVP-B,FMI,MOSAiC,North
2021-02-24T04:59:57Z,1614142797,2021,5,0,55.2083,55.125,65.646,24.4986,1018.2,-0.9,-999.0,yes,yes,no,300234011093780,SVP-B,FMI,MOSAiC,North
2021-02-24T06:00:00Z,1614146400,2021,6,0,55.25,55.25,65.6466,24.4978,1017.8,-0.9,-999.0,yes,yes,no,300234011093780,SVP-B,FMI,MOSAiC,North
2021-02-24T07:00:02Z,1614150003,2021,7,0,55.2917,55.25,65.6466,24.4978,1016.1,-1.0,-999.0,yes,yes,no,300234011093780,SVP-B,FMI,MOSAiC,North
2021-02-24T07:59:57Z,1614153597,2021,8,0,55.3333,55.25,65.6466,24.4978,1014.9,-0.9,-999.0,yes,yes,no,300234011093780,SVP-B,FMI,MOSAiC,North
2021-02-24T09:00:00Z,1614157200,2021,9,0,55.375,55.375,65.6458,24.4988,1013.6,-1.0,-999.0,yes,yes,no,300234011093780,SVP-B,FMI,MOSAiC,North
2021-02-24T10:00:02Z,1614160803,2021,10,0,55.4167,55.375,65.6458,24.4988,1012.3,-0.9,-999.0,yes,yes,no,300234011093780,SVP-B,FMI,MOSAiC,North
2021-02-24T10:59:57Z,1614164397,2021,11,0,55.4583,55.375,65.6458,24.4988,1010.1,-0.8,-999.0,yes,yes,no,300234011093780,SVP-B,FMI,MOSAiC,North
2021-02-24T12:00:00Z,1614168000,2021,12,0,55.5,55.5,65.6542,24.5078,1008.1,-0.8,-999.0,yes,yes,no,300234011093780,SVP-B,FMI,MOSAiC,North
2021-02-24T13:00:02Z,1614171603,2021,13,0,55.5417,55.5,65.6542,24.5078,1007.3,-0.7,-999.0,yes,yes,no,300234011093780,SVP-B,FMI,MOSAiC,North
2021-02-24T13:59:57Z,1614175197,2021,14,0,55.5833,55.5,65.6542,24.5078,1005.7,-0.6,-999.0,yes,yes,no,300234011093780,SVP-B,FMI,MOSAiC,North
2021-02-24T15:00:00Z,1614178800,2021,15,0,55.625,55.625,65.3992,24.0938,1004.6,-0.5,-999.0,yes,yes,no,300234011093780,SVP-B,FMI,MOSAiC,North
2021-02-24T16:00:02Z,1614182403,2021,16,0,55.6667,55.625,65.3992,24.0938,1003.7,-0.3,-999.0,yes,yes,no,300234011093780,SVP-B,FMI,MOSAiC,North
2021-02-24T16:59:57Z,1614185997,2021,17,0,55.7083,55.625,65.3992,24.0938,1003.2,-0.2,-999.0,yes,yes,no,300234011093780,SVP-B,FMI,MOSAiC,North
2021-02-24T18:00:00Z,1614189600,2021,18,0,55.75,55.75,65.4932,24.331,1003.1,-0.2,-999.0,yes,yes,no,300234011093780,SVP-B,FMI,MOSAiC,North
2021-02-24T19:00:02Z,1614193203,2021,19,0,55.7917,55.75,65.4932,24.331,1003.2,-0.1,-999.0,yes,yes,no,300234011093780,SVP-B,FMI,MOSAiC,North
2021-02-24T19:59:57Z,1614196797,2021,20,0,55.8333,55.75,65.4932,24.331,1003.1,-0.1,-999.0,yes,yes,no,300234011093780,SVP-B,FMI,MOSAiC,North
2021-02-24T21:00:00Z,1614200400,2021,21,0,55.875,55.875,65.6272,24.376,1003.4,0.0,-999.0,yes,yes,no,300234011093780,SVP-B,FMI,MOSAiC,North
2021-02-24T22:00:02Z,1614204003,2021,22,0,55.9167,55.875,65.6272,24.376,1003.3,0.0,-999.0,yes,yes,no,300234011093780,SVP-B,FMI,MOSAiC,North
2021-02-24T22:59:57Z,1614207597,2021,23,0,55.9583,55.875,65.6272,24.376,1002.7,0.0,-999.0,yes,yes,no,300234011093780,SVP-B,FMI,MOSAiC,North
2021-02-25T00:00:00Z,1614211200,2021,0,0,56.0,56.0,65.3946,24.0768,1002.3,0.0,-999.0,yes,yes,no,300234011093780,SVP-B,FMI,MOSAiC,North
2021-02-25T01:00:02Z,1614214803,2021,1,0,56.0417,56.0,65.3946,24.0768,1002.7,0.1,-999.0,yes,yes,no,300234011093780,SVP-B,FMI,MOSAiC,North
2021-02-25T01:59:57Z,1614218397,2021,2,0,56.0833,56.0,65.3946,24.0768,1001.8,0.1,-999.0,yes,yes,no,300234011093780,SVP-B,FMI,MOSAiC,North
2021-02-25T03:00:00Z,1614222000,2021,3,0,56.125,56.125,65.5484,24.4318,1001.1,0.2,-999.0,yes,yes,no,300234011093780,SVP-B,FMI,MOSAiC,North
2021-02-25T04:00:02Z,1614225603,2021,4,0,56.1667,56.125,65.5484,24.4318,1000.0,0.2,-999.0,yes,yes,no,300234011093780,SVP-B,FMI,MOSAiC,North
2021-02-25T04:59:57Z,1614229197,2021,5,0,56.2083,56.125,65.5484,24.4318,999.5,0.3,-999.0,yes,yes,no,300234011093780,SVP-B,FMI,MOSAiC,North
2021-02-25T06:00:00Z,1614232800,2021,6,0,56.25,56.25,65.6594,24.2362,999.0,0.3,-999.0,yes,yes,no,300234011093780,SVP-B,FMI,MOSAiC,North
2021-02-25T07:00:02Z,1614236403,2021,7,0,56.2917,56.25,65.6594,24.2362,998.1,0.3,-999.0,yes,yes,no,300234011093780,SVP-B,FMI,MOSAiC,North
2021-02-25T07:59:57Z,1614239997,2021,8,0,56.3333,56.25,65.6594,24.2362,998.1,0.4,-999.0,yes,yes,no,300234011093780,SVP-B,FMI,MOSAiC,North
2021-02-25T09:00:00Z,1614243600,2021,9,0,56.375,56.375,65.744,24.1572,997.9,0.5,-999.0,yes,yes,no,300234011093780,SVP-B,FMI,MOSAiC,North
2021-02-25T10:00:02Z,1614247203,2021,10,0,56.4167,56.375,65.744,24.1572,998.0,0.7,-999.0,yes,yes,no,300234011093780,SVP-B,FMI,MOSAiC,North
2021-02-25T10:59:57Z,1614250797,2021,11,0,56.4583,56.375,65.744,24.1572,998.0,0.7,-999.0,yes,yes,no,300234011093780,SVP-B,FMI,MOSAiC,North
2021-02-25T12:00:00Z,1614254400,2021,12,0,56.5,56.5,65.4308,24.1962,998.0,0.8,-999.0,yes,yes,no,300234011093780,SVP-B,FMI,MOSAiC,North
2021-02-25T13:00:02Z,1614258003,2021,13,0,56.5417,56.5,65.4308,24.1962,998.0,0.8,-999.0,yes,yes,no,300234011093780,SVP-B,FMI,MOSAiC,North
2021-02-25T13:59:57Z,1614261597,2021,14,0,56.5833,56.5,65.4308,24.1962,997.4,0.8,-999.0,yes,yes,no,300234011093780,SVP-B,FMI,MOSAiC,North
2021-02-25T15:00:00Z,1614265200,2021,15,0,56.625,56.625,65.6324,24.3544,996.5,1.0,-999.0,yes,yes,no,300234011093780,SVP-B,FMI,MOSAiC,North
2021-02-25T16:00:02Z,1614268803,2021,16,0,56.6667,56.625,65.6324,24.3544,995.9,1.2,-999.0,yes,yes,no,300234011093780,SVP-B,FMI,MOSAiC,North
2021-02-25T16:59:57Z,1614272397,2021,17,0,56.7083,56.625,65.6324,24.3544,995.7,1.4,-999.0,yes,yes,no,300234011093780,SVP-B,FMI,MOSAiC,North
2021-02-25T18:00:00Z,1614276000,2021,18,0,56.75,56.75,65.6204,24.4856,995.7,1.1,-999.0,yes,yes,no,300234011093780,SVP-B,FMI,MOSAiC,North
2021-02-25T19:00:02Z,1614279603,2021,19,0,56.7917,56.75,65.6204,24.4856,995.3,1.7,-999.0,yes,yes,no,300234011093780,SVP-B,FMI,MOSAiC,North